Weather History for Atwater, CA

Change the Weather History Date:

Wednesday, May 9, 2012

  Actual Average (KMCE) Record (KMCE)
Temperature  
Mean Temperature 74 °F 65 °F  
Max Temperature 96 °F 81 °F 98 °F (2012)
Min Temperature 51 °F 50 °F 42 °F (1953)
Degree Days  
Heating Degree Days 0    
Month to date heating degree days  
Since 1 July heating degree days  
Cooling Degree Days 8    
Month to date cooling degree days  
Year to date cooling degree days  
Growing Degree Days 24 (Base 50)    
Moisture  
Dew Point 46 °F    
Average Humidity 56    
Maximum Humidity 100    
Minimum Humidity 10    
Precipitation  
Precipitation 0.00 in 0.03 in 0.26 in (2010)
Month to date precipitation 0.26  
Year to date precipitation 8.23  
Since 1 July precipitation 12.05  
Snow  
Snow 0.00 in - - ()
Month to date snowfall  
Since 1 July snowfall  
Snow Depth -    
Sea Level Pressure  
Sea Level Pressure 29.88 in    
Wind  
Wind Speed 4 mph (NNE)    
Max Wind Speed 12 mph    
Max Gust Speed -    
Visibility 10 miles    
Events      
T = Trace of Precipitation, MM = Missing Value Source: NWS Daily Summary

Daily Weather History Graph

Daily Weather History Graph

Search for Another Location

Airport:

Trip Planner

Search our weather history database for the weather conditions in past years. The results will help you decide how hot, cold, wet, or windy it might be!

Date:

Astronomy

May. 09, 2012 Rise Set
Actual Time 5:58 AM PDT 7:59 PM PDT
Civil Twilight 5:29 AM PDT 8:28 PM PDT
Nautical Twilight 4:54 AM PDT 9:03 PM PDT
Astronomical Twilight 4:16 AM PDT 9:41 PM PDT
Moon No Moon Rise 9:20 AM PDT (5/9)
Length of Visible Light 14h 59m
Length of Day
14h 01m
Waning Gibbous, 82% of the Moon is Illuminated
May 9
Waning Gibbous
May 12
Last Quarter
May 20
New
May 28
First Quarter
Jun 4
Full

Hourly Weather History & Observations

Time (PDT) Temp. Dew Point Humidity Pressure Visibility Wind Dir Wind Speed Gust Speed Precip Events Conditions
12:15 AM 62.6 °F 48.2 °F 59% 29.90 in 10.0 mi North - - N/A   Clear
12:35 AM 60.8 °F 50.0 °F 68% 29.90 in 10.0 mi North - - N/A   Clear
12:55 AM 60.8 °F 48.2 °F 63% 29.90 in 10.0 mi North - - N/A   Clear
1:15 AM 64.4 °F 48.2 °F 56% 29.90 in 10.0 mi North - - N/A   Clear
1:35 AM 62.6 °F 48.2 °F 59% 29.90 in 10.0 mi North - - N/A   Clear
1:55 AM 57.2 °F 48.2 °F 72% 29.90 in 10.0 mi NE 4.6 mph - N/A   Clear
2:15 AM 59.0 °F 48.2 °F 67% 29.89 in 10.0 mi NE 3.5 mph - N/A   Clear
2:35 AM 57.2 °F 48.2 °F 72% 29.89 in 10.0 mi NNW 3.5 mph - N/A   Clear
2:55 AM 57.2 °F 48.2 °F 72% 29.89 in 10.0 mi NNW 5.8 mph - N/A   Clear
3:15 AM 60.8 °F 46.4 °F 59% 29.90 in 10.0 mi Calm Calm - N/A   Clear
3:35 AM 57.2 °F 48.2 °F 72% 29.90 in 10.0 mi Calm Calm - N/A   Clear
3:55 AM 55.4 °F 48.2 °F 77% 29.90 in 10.0 mi North 3.5 mph - N/A   Clear
4:15 AM 53.6 °F 50.0 °F 88% 29.90 in 10.0 mi Calm Calm - N/A   Clear
4:35 AM 53.6 °F 51.8 °F 94% 29.90 in 10.0 mi Calm Calm - N/A   Clear
4:55 AM 53.6 °F 51.8 °F 94% 29.90 in 10.0 mi Calm Calm - N/A   Clear
5:15 AM 51.8 °F 51.8 °F 100% 29.91 in 10.0 mi Calm Calm - N/A   Clear
5:35 AM 51.8 °F 51.8 °F 100% 29.91 in 10.0 mi SE 3.5 mph - N/A   Clear
5:55 AM 51.8 °F 51.8 °F 100% 29.91 in 10.0 mi SE 3.5 mph - N/A   Clear
6:15 AM 51.8 °F 51.8 °F 100% 29.91 in 10.0 mi SE 3.5 mph - N/A   Clear
6:35 AM 53.6 °F 51.8 °F 94% 29.92 in 10.0 mi Calm Calm - N/A   Clear
6:45 AM 53.6 °F 53.6 °F 100% 29.93 in 10.0 mi Variable 3.5 mph - N/A   Clear
6:55 AM 53.6 °F 53.6 °F 100% 29.93 in 10.0 mi South 3.5 mph - N/A   Clear
7:45 AM 62.6 °F 53.6 °F 72% 29.93 in 10.0 mi Calm Calm - N/A   Clear
8:45 AM 73.4 °F 48.2 °F 41% 29.93 in 10.0 mi Variable 3.5 mph - N/A   Clear
9:45 AM 80.6 °F 44.6 °F 28% 29.92 in 10.0 mi Variable 3.5 mph - N/A   Clear
10:55 AM 86.0 °F 42.8 °F 22% 29.91 in 10.0 mi Variable 3.5 mph - N/A   Clear
11:45 AM 89.6 °F 42.8 °F 20% 29.90 in 10.0 mi Variable 3.5 mph - N/A   Clear
12:45 PM 93.2 °F 41.0 °F 16% 29.89 in 10.0 mi Variable 3.5 mph - N/A   Clear
1:50 PM 95.0 °F 33.8 °F 12% 29.86 in 10.0 mi Calm Calm - N/A   Clear
2:45 PM 96.8 °F 32.0 °F 10% 29.85 in 10.0 mi Calm Calm - N/A   Clear
3:45 PM 96.8 °F 32.0 °F 10% 29.83 in 10.0 mi NNW 8.1 mph - N/A   Clear
4:45 PM 96.8 °F 35.6 °F 12% 29.81 in 10.0 mi NNW 8.1 mph - N/A   Clear
5:45 PM 95.0 °F 39.2 °F 14% 29.80 in 10.0 mi North 11.5 mph - N/A   Clear
6:45 PM 91.4 °F 39.2 °F 16% 29.80 in 10.0 mi North 11.5 mph - N/A   Clear
7:45 PM 82.4 °F 51.8 °F 35% 29.80 in 10.0 mi NNW 11.5 mph - N/A   Clear
9:15 PM 73.4 °F 48.2 °F 41% 29.82 in 10.0 mi North 8.1 mph - N/A   Clear
9:35 PM 75.2 °F 46.4 °F 36% 29.82 in 10.0 mi NNE 8.1 mph - N/A   Clear
9:55 PM 73.4 °F 44.6 °F 36% 29.83 in 10.0 mi NNE 9.2 mph - N/A   Clear
10:15 PM 73.4 °F 44.6 °F 36% 29.83 in 10.0 mi NE 9.2 mph - N/A   Clear
10:35 PM 71.6 °F 42.8 °F 35% 29.83 in 10.0 mi NNE 8.1 mph - N/A   Clear
11:15 PM 69.8 °F 42.8 °F 38% 29.83 in 10.0 mi NNE 5.8 mph - N/A   Clear
11:35 PM 68.0 °F 44.6 °F 43% 29.83 in 10.0 mi NE 6.9 mph - N/A   Clear
11:55 PM 64.4 °F 44.6 °F 49% 29.83 in 10.0 mi NNE 6.9 mph - N/A   Clear